When you browse on this site, cookies collect data to enhance your experience and personalize the content and advertising you see.
Visit our Privacy Policy to learn more. By continuing to use the site, you agree to this use of cookies and data.
  • en Suisse
  • Liste des pays
  • À 7 jours
  • Température de l'eau
  • Carte météo
  • Widgets météo
  • user-avatar
    Se connecter

    Météo par heure à Méribel

    Ce jour, 13 Novembre, Mercredi

    Heure Température Précipitation Vent Pression Humidité
    00:00 -7°C° 0 mm 1 m/s 617 mmHg 90%
    01:00 -8°C° 0 mm 2 m/s 617 mmHg 91%
    02:00 -8°C° 0 mm 2 m/s 617 mmHg 93%
    03:00 -7°C° 0 mm 2 m/s 617 mmHg 94%
    04:00 -8°C° 0 mm 2 m/s 617 mmHg 93%
    05:00 -8°C° 0 mm 2 m/s 617 mmHg 92%
    06:00 -9°C° 0 mm 2 m/s 617 mmHg 90%
    07:00 -7°C° 0 mm 1 m/s 618 mmHg 87%
    08:00 -4°C° 0 mm 1 m/s 618 mmHg 84%
    09:00 -2°C° 0 mm 1 m/s 619 mmHg 81%
    10:00 -4°C° 0 mm 2 m/s 619 mmHg 78%
    11:00 -3°C° 0 mm 2 m/s 619 mmHg 75%
    12:00 -2°C° 0 mm 2 m/s 619 mmHg 73%
    13:00 -2°C° 0 mm 2 m/s 619 mmHg 76%
    14:00 -3°C° 0 mm 2 m/s 619 mmHg 79%
    15:00 -1°C° 0 mm 1 m/s 619 mmHg 82%
    16:00 -3°C° 0 mm 1 m/s 619 mmHg 82%
    17:00 -4°C° 0 mm 1 m/s 619 mmHg 83%
    18:00 -7°C° 0 mm 1 m/s 619 mmHg 83%
    19:00 -7°C° 0 mm 1 m/s 619 mmHg 75%
    20:00 -7°C° 0 mm 2 m/s 619 mmHg 66%
    21:00 -7°C° 0 mm 2 m/s 619 mmHg 58%
    22:00 -7°C° 0 mm 2 m/s 619 mmHg 56%
    23:00 -7°C° 0 mm 2 m/s 619 mmHg 53%

    Demain, 14 Novembre, Jeudi

    Heure Température Précipitation Vent Pression Humidité
    00:00 -7°C° 0 mm 2 m/s 619 mmHg 51%
    01:00 -8°C° 0 mm 3 m/s 619 mmHg 53%
    02:00 -8°C° 0 mm 3 m/s 619 mmHg 56%
    03:00 -7°C° 0 mm 3 m/s 619 mmHg 58%
    04:00 -7°C° 0 mm 3 m/s 619 mmHg 61%
    05:00 -7°C° 0 mm 3 m/s 619 mmHg 64%
    06:00 -7°C° 0 mm 3 m/s 619 mmHg 66%
    07:00 -6°C° 0 mm 3 m/s 619 mmHg 69%
    08:00 -6°C° 0 mm 3 m/s 620 mmHg 71%
    09:00 -5°C° 0 mm 3 m/s 620 mmHg 74%
    10:00 -4°C° 0.1 mm 3 m/s 620 mmHg 75%
    11:00 -4°C° 0.1 mm 3 m/s 620 mmHg 76%
    12:00 -2°C° 0.1 mm 3 m/s 620 mmHg 76%
    13:00 -4°C° 1.6 mm 3 m/s 619 mmHg 82%
    14:00 -4°C° 1.6 mm 3 m/s 618 mmHg 88%
    15:00 -5°C° 1.6 mm 3 m/s 618 mmHg 94%
    16:00 -5°C° 1.9 mm 3 m/s 618 mmHg 94%
    17:00 -5°C° 1.9 mm 3 m/s 617 mmHg 94%
    18:00 -5°C° 1.9 mm 3 m/s 617 mmHg 94%
    19:00 -5°C° 1.9 mm 3 m/s 617 mmHg 94%
    20:00 -5°C° 1.9 mm 3 m/s 617 mmHg 94%
    21:00 -5°C° 1.9 mm 3 m/s 616 mmHg 95%
    22:00 -5°C° 1.6 mm 3 m/s 616 mmHg 95%
    23:00 -5°C° 1.6 mm 3 m/s 616 mmHg 95%

    Après-demain, 15 Novembre, Vendredi

    Heure Température Précipitation Vent Pression Humidité
    00:00 -5°C° 1.6 mm 3 m/s 616 mmHg 95%
    01:00 -4°C° 1 mm 2 m/s 616 mmHg 95%
    02:00 -4°C° 1 mm 2 m/s 616 mmHg 96%
    03:00 -2°C° 1 mm 1 m/s 616 mmHg 96%
    04:00 -3°C° 0.1 mm 1 m/s 617 mmHg 95%
    05:00 -4°C° 0.1 mm 1 m/s 617 mmHg 94%
    06:00 -6°C° 0.1 mm 1 m/s 617 mmHg 93%
    07:00 -4°C° 0 mm 1 m/s 618 mmHg 91%
    08:00 -3°C° 0 mm 1 m/s 618 mmHg 90%
    09:00 -1°C° 0 mm 1 m/s 619 mmHg 88%
    10:00 -1°C° 0 mm 1 m/s 620 mmHg 87%
    11:00 0°C° 0 mm 1 m/s 620 mmHg 87%
    12:00 +1°C° 0 mm 1 m/s 620 mmHg 86%
    13:00 0°C° 0.1 mm 1 m/s 620 mmHg 89%
    14:00 0°C° 0.1 mm 1 m/s 620 mmHg 92%
    15:00 -1°C° 0.1 mm 1 m/s 619 mmHg 95%
    16:00 -2°C° 0.2 mm 1 m/s 620 mmHg 95%
    17:00 -3°C° 0.2 mm 1 m/s 620 mmHg 94%
    18:00 -4°C° 0.2 mm 1 m/s 620 mmHg 93%
    19:00 -4°C° 0.1 mm 1 m/s 620 mmHg 91%
    20:00 -7°C° 0.1 mm 2 m/s 620 mmHg 89%
    21:00 -8°C° 0.1 mm 2 m/s 620 mmHg 87%
    22:00 -8°C° 0 mm 2 m/s 621 mmHg 87%
    23:00 -8°C° 0 mm 2 m/s 621 mmHg 87%

    16 Novembre, Samedi

    Heure Température Précipitation Vent Pression Humidité
    00:00 -8°C° 0 mm 2 m/s 621 mmHg 87%
    01:00 -8°C° 0 mm 2 m/s 621 mmHg 87%
    02:00 -9°C° 0 mm 2 m/s 621 mmHg 86%
    03:00 -9°C° 0 mm 2 m/s 621 mmHg 86%
    04:00 -9°C° 0 mm 2 m/s 622 mmHg 86%
    05:00 -10°C° 0 mm 3 m/s 622 mmHg 86%
    06:00 -10°C° 0 mm 3 m/s 622 mmHg 86%
    07:00 -8°C° 0 mm 3 m/s 623 mmHg 86%
    08:00 -7°C° 0 mm 3 m/s 624 mmHg 86%
    09:00 -5°C° 0 mm 3 m/s 625 mmHg 87%
    10:00 -3°C° 0 mm 2 m/s 625 mmHg 86%
    11:00 -2°C° 0 mm 2 m/s 626 mmHg 85%
    12:00 +1°C° 0 mm 1 m/s 626 mmHg 84%
    13:00 0°C° 0 mm 1 m/s 625 mmHg 87%
    14:00 -1°C° 0 mm 1 m/s 625 mmHg 89%
    15:00 -1°C° 0 mm 1 m/s 625 mmHg 92%
    16:00 -3°C° 0 mm 1 m/s 625 mmHg 91%
    17:00 -6°C° 0 mm 2 m/s 624 mmHg 90%
    18:00 -7°C° 0 mm 2 m/s 624 mmHg 89%
    19:00 -7°C° 0 mm 2 m/s 624 mmHg 87%
    20:00 -7°C° 0 mm 2 m/s 624 mmHg 85%
    21:00 -6°C° 0 mm 1 m/s 624 mmHg 83%
    22:00 -6°C° 0 mm 1 m/s 623 mmHg 79%
    23:00 -6°C° 0 mm 1 m/s 623 mmHg 76%

    17 Novembre, Dimanche

    Heure Température Précipitation Vent Pression Humidité
    00:00 -7°C° 0 mm 1 m/s 622 mmHg 72%
    01:00 -6°C° 0 mm 1 m/s 622 mmHg 73%
    02:00 -6°C° 0 mm 1 m/s 621 mmHg 73%
    03:00 -4°C° 0 mm 1 m/s 621 mmHg 74%
    04:00 -4°C° 0.1 mm 1 m/s 621 mmHg 77%
    05:00 -4°C° 0.1 mm 1 m/s 620 mmHg 80%
    06:00 -4°C° 0.1 mm 1 m/s 620 mmHg 83%
    07:00 -2°C° 0.2 mm 1 m/s 621 mmHg 85%
    08:00 -1°C° 0.2 mm 1 m/s 621 mmHg 87%
    09:00 +1°C° 0.2 mm 1 m/s 621 mmHg 89%
    10:00 +1°C° 0.2 mm 1 m/s 621 mmHg 92%
    11:00 +2°C° 0.2 mm 1 m/s 620 mmHg 95%
    12:00 +2°C° 0.2 mm 1 m/s 619 mmHg 97%
    13:00 +1°C° 0.2 mm 1 m/s 619 mmHg 98%
    14:00 +1°C° 0.2 mm 1 m/s 619 mmHg 98%
    15:00 0°C° 0.2 mm 1 m/s 618 mmHg 98%
    16:00 0°C° 0.8 mm 1 m/s 619 mmHg 98%
    17:00 -1°C° 0.8 mm 1 m/s 619 mmHg 97%
    18:00 -2°C° 0.8 mm 0 m/s 619 mmHg 97%
    19:00 -2°C° 0.3 mm 0 m/s 619 mmHg 97%
    20:00 -3°C° 0.3 mm 0 m/s 619 mmHg 97%
    21:00 -3°C° 0.3 mm 0 m/s 619 mmHg 97%
    22:00 -3°C° 0.1 mm 0 m/s 619 mmHg 97%
    23:00 -3°C° 0.1 mm 0 m/s 619 mmHg 97%

    18 Novembre, Lundi

    Heure Température Précipitation Vent Pression Humidité
    00:00 -3°C° 0.1 mm 0 m/s 619 mmHg 96%
    01:00 -3°C° 0.1 mm 0 m/s 619 mmHg 96%
    02:00 -2°C° 0.1 mm 1 m/s 619 mmHg 96%
    03:00 -2°C° 0.1 mm 1 m/s 620 mmHg 95%
    04:00 -2°C° 0 mm 1 m/s 620 mmHg 95%
    05:00 -2°C° 0 mm 1 m/s 620 mmHg 94%
    06:00 -2°C° 0 mm 1 m/s 621 mmHg 93%
    07:00 -1°C° 0 mm 1 m/s 622 mmHg 93%
    08:00 0°C° 0 mm 1 m/s 623 mmHg 93%
    09:00 +1°C° 0 mm 1 m/s 623 mmHg 92%
    10:00 +2°C° 0.1 mm 1 m/s 624 mmHg 93%
    11:00 +2°C° 0.1 mm 1 m/s 624 mmHg 95%
    12:00 +2°C° 0.1 mm 1 m/s 624 mmHg 96%
    13:00 +2°C° 0.2 mm 1 m/s 624 mmHg 97%
    14:00 +2°C° 0.2 mm 1 m/s 624 mmHg 97%
    15:00 +1°C° 0.2 mm 1 m/s 624 mmHg 97%
    16:00 +1°C° 0.2 mm 1 m/s 624 mmHg 97%
    17:00 +1°C° 0.2 mm 1 m/s 624 mmHg 97%
    18:00 0°C° 0.2 mm 1 m/s 624 mmHg 97%
    19:00 0°C° 0.1 mm 1 m/s 624 mmHg 96%
    20:00 -1°C° 0.1 mm 1 m/s 624 mmHg 95%
    21:00 -1°C° 0.1 mm 1 m/s 625 mmHg 94%
    22:00 -1°C° 0 mm 1 m/s 624 mmHg 93%
    23:00 -2°C° 0 mm 1 m/s 624 mmHg 92%
    Voir plus